Location: El Bakhil
(32.7726°N, 5.5387°W)
Time: 05:04:16
(UTC+00:00)

Cosmos 1689 Rocket - Pass Details

Date: 03 March 2021
Orbit: 350 x 361 km, 97.5° (Epoch: 12 April)

Event Time Altitude Azimuth Distance (km) Brightness Sun altitude
Rises 18:56:44 0° 14° (NNE) 2,205 5.7 -8.3°
Reaches altitude 10° 18:58:40 10° 17° (NNE) 1,357 4.6 -8.7°
Maximum altitude 19:01:33 67° 101° (E) 399 1.9 -9.3°
Drops below altitude 10° 19:04:25 10° 185° (S) 1,353 4.9 -9.9°
Sets 19:06:21 0° 188° (S) 2,198 6.0 -10.3°
